COSMOS 1275 DEB, 12675

Orbit data source: Space-Track

COSMOS 1275 DEB, 12675 is space debris in LEO originally from a launch on Thu, 04 Jun 1981 UTC launched from the Plesetsk Missile And Space Complex (PKMTR). Debris objects in space refer to the collection of defunct objects orbiting the Earth. Examples of debris include non-operational satellites, rocket bodies, and fragments generated from explosions, collisions, or faulty payload assembly.

Loading next visibility...
Identifier
12675, 1981-053AF
Orbit
LEO
Country
Flag of CISCIS
Related business
Manufacturer
Unknown
Mission
Spacecraft
Bus & Motor
Unknown
Mass
Unknown
Launch date (UTC)
1981-06-04 (44 years ago)
Launch vehicle
Unknown
Launch site
Plesetsk Missile And Space Complex (PKMTR)
Object type
Payload
Rocket body
Debris
Shape & HBR
Unknown
Radar Cross Section
Medium (>0.1 m² and <1 m²)

Expand to show TLE details & history
Last TLE update: 19 hours ago

TLE from 19 hours ago
0 COSMOS 1275 DEB
1 12675U 81053AF  25258.03556294  .00000514  00000-0  46928-3 0  9996
2 12675  82.9329 108.3249 0065159 340.5269 171.7775 13.80560738210579
Epoch: 2025-09-15T00:51Z
TLE epoch observation values (Epoch: 2025-09-15T00:51:12.638Z)
Latitude
27.40075°
Longitude
-82.38927°
Altitude
1,012.603 km
Speed
7.324 km/s
True Right ascension
18h 58m 38s
True Declination
27° 15' 55"
Sunlit
Object was in daylight at epoch
Visualization orbit readout
Latitude
Unknown
Longitude
Unknown
Altitude
Unknown
Speed
Unknown
Apparent Right ascension
Unknown
Apparent Declination
Unknown
Sunlit
N/A
Visualization observer readout
Local Sidereal Time
12:16:39
Azimuth
Unknown
Elevation
Unknown
Doppler factor
Unknown
Orbital elements
Apogee altitude
1,006.848 km
Perigee altitude
911.232 km
Semi-major axis
7,337.177 km
Eccentricity
0.00652
Inclination
82.9329°
RAAN
108.3249°
Arg. of periapsis
340.5269°
True anomaly
171.88343°
Mean anomaly
171.7775°
Eccentric anomaly
171.83055°
Mean motion
3.45342 °/min
Orbital period
104.24 mins
BSTAR
0.00046928
Loading maneuver chart data...
Computing Atmospheric mass density...
Loading historical data...
Loading historical data...
Loading historical data...
Loading historical data...
Loading historical data...
Loading historical data...
Loading historical data...

Documentation

Showing up to 5 results
|